Content
SEND FEEDBACK

Daily
Averages
Monthly
Summary
Spain

SANTA CRUZ DE TENERIFE, SPAIN


Home > Europe > Spain
Elevation: 151 feet     Latitude: 28 27N     Longitude: 016 15W

WEATHER
 
SELECT A DAY
Number of Records: 203,014;   Date Range: 7/1/96 - 4/19/14
 
SHARE

PRINT THIS DATA

[ ← Previous Day ]
WEATHER ALMANAC - FEBRUARY 6, 2013
[ Next Day → ]
[ °C ]   °F
Weather ElementAverageHighLow
Temperature57 °F60.8 °F (1:30 pm)53.6 °F (6:30 am)
Dewpoint51.5 °F53.6 °F (7:48 am)48.2 °F (5:30 pm)
Humidity82.3 %94 % (6:30 am)67 % (5:30 pm)
Barometer30.30 in30.33 in (9:00 am)30.27 in (6:30 am)
Wind Speed8.2 mph12.7 mph (10:30 am)
Weather ElementAverage
Visibility6.2 mi
Wind DirectionESE (103.3 °)

Weather ElementTotal
Precipitation---
Heating Degree Days7.8 (Base 65)
Growing Degree Days7.2 (Base 50)
Averaged from 33 records on February 6, 2013
WEATHER CONDITIONS BREAKOUT
WIND DIRECTION BREAKOUT
WEATHER BY HOUR - FEBRUARY 6, 2013
[ °C ]   °F
Local TimeTemperatureDewpointHumidityBarometerVisibilityWind DirectionWind SpeedGust SpeedPrecipitationEventsConditions
6:30 AM53.6 °F51.8 °F94 %30.27 in6.2 miSE (140°)9.2 mphPartly Cloudy
7:00 AM53.6 °F51.8 °F94 %30.30 in6.2 miSE (130°)9.2 mphScattered Clouds
7:30 AM53.6 °F51.8 °F94 %30.30 in6.2 miSE (130°)9.2 mphScattered Clouds
7:48 AM55.4 °F53.6 °F94 %30.30 in6.2 miSE (130°)9.2 mphMostly Cloudy
8:00 AM55.4 °F53.6 °F94 %30.30 in6.2 miSE (130°)9.2 mphMostly Cloudy
8:30 AM55.4 °F53.6 °F94 %30.30 in6.2 miESE (120°)10.4 mphMostly Cloudy
9:00 AM55.4 °F53.6 °F94 %30.33 in6.2 miESE (120°)8.1 mphScattered Clouds
9:30 AM55.4 °F53.6 °F94 %30.33 in6.2 miSE (130°)6.9 mphScattered Clouds
10:00 AM55.4 °F53.6 °F94 %30.33 in6.2 miSE (130°)9.2 mphScattered Clouds
10:30 AM55.4 °F53.6 °F94 %30.33 in6.2 miESE (120°)12.7 mphScattered Clouds
11:00 AM57.2 °F53.6 °F88 %30.33 in6.2 miESE (110°)10.4 mphPartly Cloudy
11:30 AM57.2 °F51.8 °F82 %30.33 in6.2 miESE (120°)11.5 mphPartly Cloudy
12:00 PM57.2 °F51.8 °F82 %30.33 in6.2 miSE (130°)10.4 mphPartly Cloudy
12:30 PM57.2 °F51.8 °F82 %30.33 in6.2 miSE (130°)9.2 mphScattered Clouds
1:00 PM59.0 °F51.8 °F77 %30.33 in6.2 miESE (120°)10.4 mphPartly Cloudy
1:30 PM60.8 °F51.8 °F72 %30.30 in6.2 miESE (120°)10.4 mphPartly Cloudy
2:00 PM60.8 °F51.8 °F72 %30.30 in6.2 miSE (130°)6.9 mphPartly Cloudy
2:30 PM59.0 °F51.8 °F77 %30.27 in6.2 miESE (120°)10.4 mphPartly Cloudy
3:00 PM59.0 °F53.6 °F82 %30.27 in6.2 miESE (120°)10.4 mphPartly Cloudy
3:30 PM60.8 °F51.8 °F72 %30.27 in6.2 miESE (120°)9.2 mphPartly Cloudy
4:00 PM59.0 °F51.8 °F77 %30.27 in6.2 miSE (130°)9.2 mphPartly Cloudy
4:30 PM59.0 °F51.8 °F77 %30.27 in6.2 miESE (120°)8.1 mphPartly Cloudy
5:00 PM59.0 °F51.8 °F77 %30.27 in6.2 miESE (120°)10.4 mphPartly Cloudy
5:30 PM59.0 °F48.2 °F67 %30.27 in6.2 miEast (80°)6.9 mphPartly Cloudy
6:00 PM57.2 °F48.2 °F72 %30.27 in6.2 miEast (90°)5.8 mphPartly Cloudy
6:30 PM57.2 °F50.0 °F77 %30.27 in6.2 miEast (100°)6.9 mphPartly Cloudy
7:00 PM55.4 °F50.0 °F82 %30.27 in6.2 miVariable3.5 mphMostly Cloudy
7:30 PM57.2 °F50.0 °F77 %30.27 in6.2 miEast (90°)5.8 mphMostly Cloudy
8:00 PM57.2 °F51.8 °F82 %30.27 in6.2 miVariable2.3 mphMostly Cloudy
8:30 PM57.2 °F50.0 °F77 %30.30 in6.2 miNNE (30°)6.9 mphMostly Cloudy
9:00 PM57.2 °F48.2 °F72 %30.30 in6.2 miVariable3.5 mphMostly Cloudy
9:30 PM55.4 °F48.2 °F77 %30.30 in6.2 miENE (70°)5.8 mphMostly Cloudy
10:00 PM55.4 °F48.2 °F77 %30.30 in6.2 miEast (80°)3.5 mphMostly Cloudy
Hourly data recorded from GCXO, located 6.39 miles away from Santa Cruz de Tenerife, Spain







STORIES FROM OUR PARTNERS